Time,TemperatureF,DewpointF,PressureIn,WindDirection,WindDirectionDegrees,WindSpeedMPH,WindSpeedGustMPH,Humidity,HourlyPrecipIn,Conditions,Clouds,dailyrainin,SoftwareType,DateUTC
2013-03-21 00:01:00,38.8,20.3,29.81,NW,304,18.0,22.0,47,0.00,,,0.00,Wunderground v.1.15,2013-03-21 07:01:00,
2013-03-21 00:06:00,38.4,20.4,29.81,NW,307,14.0,22.0,48,0.00,,,0.00,Wunderground v.1.15,2013-03-21 07:06:00,
2013-03-21 00:11:00,38.3,20.3,29.81,NW,323,22.0,23.0,48,0.00,,,0.00,Wunderground v.1.15,2013-03-21 07:11:00,
2013-03-21 00:16:00,38.4,20.4,29.82,NW,304,20.0,23.0,48,0.00,,,0.00,Wunderground v.1.15,2013-03-21 07:16:00,
2013-03-21 00:21:00,38.4,20.4,29.82,WNW,302,17.0,25.0,48,0.00,,,0.00,Wunderground v.1.15,2013-03-21 07:21:00,
2013-03-21 00:26:00,38.6,20.6,29.82,WNW,299,20.0,25.0,48,0.00,,,0.00,Wunderground v.1.15,2013-03-21 07:26:00,
2013-03-21 00:31:00,38.4,20.4,29.82,NW,312,17.0,25.0,48,0.00,,,0.00,Wunderground v.1.15,2013-03-21 07:31:00,
2013-03-21 00:36:00,38.2,20.7,29.83,NW,304,16.0,23.0,49,0.00,,,0.00,Wunderground v.1.15,2013-03-21 07:36:00,
2013-03-21 00:41:00,38.4,20.4,29.83,NW,324,15.0,23.0,48,0.00,,,0.00,Wunderground v.1.15,2013-03-21 07:41:00,
2013-03-21 00:46:00,38.4,20.4,29.84,NW,325,14.0,18.0,48,0.00,,,0.00,Wunderground v.1.15,2013-03-21 07:46:00,
2013-03-21 00:51:00,38.3,20.3,29.84,NNW,329,14.0,22.0,48,0.00,,,0.00,Wunderground v.1.15,2013-03-21 07:51:00,
2013-03-21 00:56:00,38.4,20.4,29.84,NW,322,12.0,18.0,48,0.00,,,0.00,Wunderground v.1.15,2013-03-21 07:56:00,
2013-03-21 00:58:00,38.3,20.3,29.84,NNW,338,10.0,18.0,48,0.00,,,0.00,Wunderground v.1.15,2013-03-21 07:58:00,
2013-03-21 01:01:00,38.3,20.3,29.84,North,350,10.0,18.0,48,0.00,,,0.00,Wunderground v.1.15,2013-03-21 08:01:00,
2013-03-21 01:06:00,38.1,20.6,29.85,NNW,330,12.0,15.0,49,0.00,,,0.00,Wunderground v.1.15,2013-03-21 08:06:00,
2013-03-21 01:11:00,38.0,20.5,29.85,NNW,336,11.0,15.0,49,0.00,,,0.00,Wunderground v.1.15,2013-03-21 08:11:00,
2013-03-21 01:16:00,37.7,20.7,29.85,NW,324,8.0,10.0,50,0.00,,,0.00,Wunderground v.1.15,2013-03-21 08:16:00,
2013-03-21 01:21:00,37.6,20.6,29.85,NW,313,9.0,13.0,50,0.00,,,0.00,Wunderground v.1.15,2013-03-21 08:21:00,
2013-03-21 01:26:00,37.5,21.0,29.85,NW,319,11.0,13.0,51,0.00,,,0.00,Wunderground v.1.15,2013-03-21 08:26:00,
2013-03-21 01:31:00,37.4,20.9,29.86,NNW,331,11.0,14.0,51,0.00,,,0.00,Wunderground v.1.15,2013-03-21 08:31:00,
2013-03-21 01:36:00,36.9,21.3,29.86,NNW,330,9.0,14.0,53,0.00,,,0.00,Wunderground v.1.15,2013-03-21 08:36:00,
2013-03-21 01:41:00,36.5,21.4,29.87,West,280,8.0,14.0,54,0.00,,,0.00,Wunderground v.1.15,2013-03-21 08:41:00,
2013-03-21 01:46:00,36.7,21.2,29.87,West,276,8.0,11.0,53,0.00,,,0.00,Wunderground v.1.15,2013-03-21 08:46:00,
2013-03-21 01:51:00,37.1,21.1,29.87,WNW,290,12.0,15.0,52,0.00,,,0.00,Wunderground v.1.15,2013-03-21 08:51:00,
2013-03-21 01:56:00,36.6,21.5,29.87,West,277,5.0,10.0,54,0.00,,,0.00,Wunderground v.1.15,2013-03-21 08:56:00,
2013-03-21 02:01:00,36.1,21.5,29.87,West,275,5.0,10.0,55,0.00,,,0.00,Wunderground v.1.15,2013-03-21 09:01:00,
2013-03-21 02:06:00,35.4,21.7,29.88,West,277,4.0,7.0,57,0.00,,,0.00,Wunderground v.1.15,2013-03-21 09:06:00,
2013-03-21 02:11:00,35.4,21.7,29.89,WNW,285,2.0,7.0,57,0.00,,,0.00,Wunderground v.1.15,2013-03-21 09:11:00,
2013-03-21 02:16:00,35.4,21.7,29.89,WNW,285,0.0,3.0,57,0.00,,,0.00,Wunderground v.1.15,2013-03-21 09:16:00,
2013-03-21 02:21:00,35.4,21.7,29.89,WNW,285,2.0,3.0,57,0.00,,,0.00,Wunderground v.1.15,2013-03-21 09:21:00,
2013-03-21 02:26:00,34.8,21.9,29.90,WNW,285,1.0,3.0,59,0.00,,,0.00,Wunderground v.1.15,2013-03-21 09:26:00,
2013-03-21 02:31:00,34.3,21.8,29.90,WNW,285,0.0,3.0,60,0.00,,,0.00,Wunderground v.1.15,2013-03-21 09:31:00,
2013-03-21 02:36:00,34.4,21.9,29.90,WNW,285,2.0,4.0,60,0.00,,,0.00,Wunderground v.1.15,2013-03-21 09:36:00,
2013-03-21 02:41:00,34.4,21.9,29.90,WNW,285,2.0,4.0,60,0.00,,,0.00,Wunderground v.1.15,2013-03-21 09:41:00,
2013-03-21 02:46:00,34.1,22.0,29.90,WNW,285,3.0,3.0,61,0.00,,,0.00,Wunderground v.1.15,2013-03-21 09:46:00,
2013-03-21 02:51:00,33.2,22.0,29.91,WNW,285,1.0,3.0,63,0.00,,,0.00,Wunderground v.1.15,2013-03-21 09:51:00,
2013-03-21 02:56:00,32.9,22.0,29.91,WNW,285,2.0,3.0,64,0.00,,,0.00,Wunderground v.1.15,2013-03-21 09:56:00,
2013-03-21 03:01:00,33.0,22.5,29.91,WNW,285,2.0,3.0,65,0.00,,,0.00,Wunderground v.1.15,2013-03-21 10:01:00,
2013-03-21 03:06:00,32.9,22.4,29.92,West,277,4.0,6.0,65,0.00,,,0.00,Wunderground v.1.15,2013-03-21 10:06:00,
2013-03-21 03:11:00,32.9,22.4,29.92,West,277,3.0,6.0,65,0.00,,,0.00,Wunderground v.1.15,2013-03-21 10:11:00,
2013-03-21 03:16:00,33.3,22.4,29.92,West,277,2.0,4.0,64,0.00,,,0.00,Wunderground v.1.15,2013-03-21 10:16:00,
2013-03-21 03:21:00,33.3,22.8,29.93,West,277,1.0,4.0,65,0.00,,,0.00,Wunderground v.1.15,2013-03-21 10:21:00,
2013-03-21 03:26:00,33.0,22.9,29.93,West,277,0.0,2.0,66,0.00,,,0.00,Wunderground v.1.15,2013-03-21 10:26:00,
2013-03-21 03:31:00,32.5,22.8,29.93,West,277,0.0,2.0,67,0.00,,,0.00,Wunderground v.1.15,2013-03-21 10:31:00,
2013-03-21 03:33:00,32.5,22.8,29.93,West,277,0.0,0.0,67,0.00,,,0.00,Wunderground v.1.15,2013-03-21 10:33:00,
2013-03-21 03:36:00,32.3,22.9,29.93,West,277,2.0,2.0,68,0.00,,,0.00,Wunderground v.1.15,2013-03-21 10:36:00,
2013-03-21 03:41:00,32.4,22.7,29.93,West,277,2.0,3.0,67,0.00,,,0.00,Wunderground v.1.15,2013-03-21 10:41:00,
2013-03-21 03:46:00,32.4,22.7,29.93,West,277,2.0,3.0,67,0.00,,,0.00,Wunderground v.1.15,2013-03-21 10:46:00,
2013-03-21 03:51:00,32.4,22.7,29.93,West,277,2.0,3.0,67,0.00,,,0.00,Wunderground v.1.15,2013-03-21 10:51:00,
2013-03-21 03:56:00,32.7,22.6,29.93,West,277,3.0,3.0,66,0.00,,,0.00,Wunderground v.1.15,2013-03-21 10:56:00,
2013-03-21 04:01:00,33.3,22.4,29.94,WNW,283,4.0,5.0,64,0.00,,,0.00,Wunderground v.1.15,2013-03-21 11:01:00,
2013-03-21 04:06:00,33.1,22.6,29.93,NW,309,4.0,5.0,65,0.00,,,0.00,Wunderground v.1.15,2013-03-21 11:06:00,
2013-03-21 04:11:00,32.6,22.5,29.94,NW,315,3.0,5.0,66,0.00,,,0.00,Wunderground v.1.15,2013-03-21 11:11:00,
2013-03-21 04:16:00,32.3,22.6,29.94,NW,317,4.0,5.0,67,0.00,,,0.00,Wunderground v.1.15,2013-03-21 11:16:00,
2013-03-21 04:21:00,32.2,22.5,29.94,NW,317,3.0,5.0,67,0.00,,,0.00,Wunderground v.1.15,2013-03-21 11:21:00,
2013-03-21 04:26:00,31.5,22.1,29.94,NW,320,4.0,5.0,68,0.00,,,0.00,Wunderground v.1.15,2013-03-21 11:26:00,
2013-03-21 04:31:00,31.7,22.7,29.94,NW,321,0.0,5.0,69,0.00,,,0.00,Wunderground v.1.15,2013-03-21 11:31:00,
2013-03-21 04:36:00,31.5,22.5,29.95,NW,321,0.0,2.0,69,0.00,,,0.00,Wunderground v.1.15,2013-03-21 11:36:00,
2013-03-21 04:41:00,31.4,22.4,29.95,NW,321,1.0,3.0,69,0.00,,,0.00,Wunderground v.1.15,2013-03-21 11:41:00,
2013-03-21 04:46:00,31.3,22.6,29.95,NW,321,1.0,2.0,70,0.00,,,0.00,Wunderground v.1.15,2013-03-21 11:46:00,
2013-03-21 04:51:00,31.3,22.6,29.95,NW,321,0.0,2.0,70,0.00,,,0.00,Wunderground v.1.15,2013-03-21 11:51:00,
2013-03-21 04:56:00,31.0,22.4,29.95,NW,321,2.0,4.0,70,0.00,,,0.00,Wunderground v.1.15,2013-03-21 11:56:00,
2013-03-21 05:01:00,31.0,22.4,29.95,NW,321,2.0,4.0,70,0.00,,,0.00,Wunderground v.1.15,2013-03-21 12:01:00,
2013-03-21 05:06:00,31.3,22.3,29.95,NW,321,3.0,3.0,69,0.00,,,0.00,Wunderground v.1.15,2013-03-21 12:06:00,
2013-03-21 05:11:00,32.5,22.8,29.96,NW,321,2.0,4.0,67,0.00,,,0.00,Wunderground v.1.15,2013-03-21 12:11:00,
2013-03-21 05:16:00,32.6,22.1,29.96,NW,321,2.0,4.0,65,0.00,,,0.00,Wunderground v.1.15,2013-03-21 12:16:00,
2013-03-21 05:21:00,32.9,22.4,29.96,NW,321,2.0,4.0,65,0.00,,,0.00,Wunderground v.1.15,2013-03-21 12:21:00,
2013-03-21 05:26:00,32.3,21.8,29.96,NW,321,2.0,2.0,65,0.00,,,0.00,Wunderground v.1.15,2013-03-21 12:26:00,
2013-03-21 05:31:00,32.4,22.3,29.97,NW,321,2.0,3.0,66,0.00,,,0.00,Wunderground v.1.15,2013-03-21 12:31:00,
2013-03-21 05:36:00,32.1,22.0,29.97,NW,321,4.0,6.0,66,0.00,,,0.00,Wunderground v.1.15,2013-03-21 12:36:00,
2013-03-21 05:41:00,31.9,21.8,29.97,NW,322,2.0,6.0,66,0.00,,,0.00,Wunderground v.1.15,2013-03-21 12:41:00,
2013-03-21 05:46:00,32.3,22.2,29.97,NW,323,3.0,5.0,66,0.00,,,0.00,Wunderground v.1.15,2013-03-21 12:46:00,
2013-03-21 05:51:00,33.0,22.1,29.97,NW,323,4.0,5.0,64,0.00,,,0.00,Wunderground v.1.15,2013-03-21 12:51:00,
2013-03-21 05:56:00,33.2,22.3,29.97,NW,323,2.0,3.0,64,0.00,,,0.00,Wunderground v.1.15,2013-03-21 12:56:00,
2013-03-21 06:01:00,32.9,22.0,29.98,NW,323,2.0,4.0,64,0.00,,,0.00,Wunderground v.1.15,2013-03-21 13:01:00,
2013-03-21 06:06:00,33.1,22.2,29.98,NW,323,2.0,3.0,64,0.00,,,0.00,Wunderground v.1.15,2013-03-21 13:06:00,
2013-03-21 06:11:00,32.5,22.0,29.98,NW,323,5.0,7.0,65,0.00,,,0.00,Wunderground v.1.15,2013-03-21 13:11:00,
2013-03-21 06:16:00,31.7,21.6,29.98,WNW,294,2.0,4.0,66,0.00,,,0.00,Wunderground v.1.15,2013-03-21 13:16:00,
2013-03-21 06:21:00,31.0,21.7,29.98,WNW,294,2.0,4.0,68,0.00,,,0.00,Wunderground v.1.15,2013-03-21 13:21:00,
2013-03-21 06:26:00,31.6,21.9,29.98,WNW,294,2.0,3.0,67,0.00,,,0.00,Wunderground v.1.15,2013-03-21 13:26:00,
2013-03-21 06:31:00,31.5,21.4,29.99,WNW,294,3.0,4.0,66,0.00,,,0.00,Wunderground v.1.15,2013-03-21 13:31:00,
2013-03-21 06:36:00,30.7,21.4,29.99,WNW,296,4.0,4.0,68,0.00,,,0.00,Wunderground v.1.15,2013-03-21 13:36:00,
2013-03-21 06:41:00,30.4,21.4,29.99,NW,311,4.0,5.0,69,0.00,,,0.00,Wunderground v.1.15,2013-03-21 13:41:00,
2013-03-21 06:46:00,29.7,21.1,29.99,NW,314,3.0,4.0,70,0.00,,,0.00,Wunderground v.1.15,2013-03-21 13:46:00,
2013-03-21 06:51:00,30.7,22.1,29.99,NW,313,2.0,4.0,70,0.00,,,0.00,Wunderground v.1.15,2013-03-21 13:51:00,
2013-03-21 06:56:00,31.5,21.8,29.99,NW,313,2.0,3.0,67,0.00,,,0.00,Wunderground v.1.15,2013-03-21 13:56:00,
2013-03-21 07:01:00,30.9,21.2,29.99,NW,314,2.0,3.0,67,0.00,,,0.00,Wunderground v.1.15,2013-03-21 14:01:00,
2013-03-21 07:02:00,30.8,21.1,29.99,NW,314,1.0,3.0,67,0.00,,,0.00,Wunderground v.1.15,2013-03-21 14:02:00,
2013-03-21 07:06:00,29.9,21.0,29.99,NW,320,4.0,4.0,69,0.00,,,0.00,Wunderground v.1.15,2013-03-21 14:06:00,
2013-03-21 07:11:00,29.5,21.3,29.99,North,350,5.0,6.0,71,0.00,,,0.00,Wunderground v.1.15,2013-03-21 14:11:00,
2013-03-21 07:16:00,30.1,21.8,29.99,North,11,5.0,6.0,71,0.00,,,0.00,Wunderground v.1.15,2013-03-21 14:16:00,
2013-03-21 07:21:00,30.5,21.9,30.00,NNE,13,4.0,6.0,70,0.00,,,0.00,Wunderground v.1.15,2013-03-21 14:21:00,
2013-03-21 07:26:00,31.6,22.2,30.00,NNE,15,2.0,5.0,68,0.00,,,0.00,Wunderground v.1.15,2013-03-21 14:26:00,
2013-03-21 07:31:00,32.4,22.7,30.00,NNE,15,3.0,5.0,67,0.00,,,0.00,Wunderground v.1.15,2013-03-21 14:31:00,
2013-03-21 07:36:00,32.7,22.6,30.00,NNE,15,1.0,4.0,66,0.00,,,0.00,Wunderground v.1.15,2013-03-21 14:36:00,
2013-03-21 07:41:00,33.0,22.9,30.00,NNE,15,3.0,5.0,66,0.00,,,0.00,Wunderground v.1.15,2013-03-21 14:41:00,
2013-03-21 07:46:00,33.3,22.8,30.00,NNE,13,2.0,6.0,65,0.00,,,0.00,Wunderground v.1.15,2013-03-21 14:46:00,
2013-03-21 07:51:00,33.7,23.2,30.00,NNE,13,3.0,6.0,65,0.00,,,0.00,Wunderground v.1.15,2013-03-21 14:51:00,
2013-03-21 07:56:00,34.1,23.2,30.00,NNE,13,3.0,4.0,64,0.00,,,0.00,Wunderground v.1.15,2013-03-21 14:56:00,
2013-03-21 07:57:00,34.2,23.3,30.00,NNE,13,2.0,4.0,64,0.00,,,0.00,Wunderground v.1.15,2013-03-21 14:57:00,
2013-03-21 08:01:00,34.6,23.3,30.00,NNE,13,4.0,4.0,63,0.00,,,0.00,Wunderground v.1.15,2013-03-21 15:01:00,
2013-03-21 08:06:00,35.0,23.3,30.00,NNE,12,3.0,5.0,62,0.00,,,0.00,Wunderground v.1.15,2013-03-21 15:06:00,
2013-03-21 08:11:00,35.2,23.5,30.01,NNE,12,2.0,5.0,62,0.00,,,0.00,Wunderground v.1.15,2013-03-21 15:11:00,
2013-03-21 08:16:00,35.6,23.9,30.01,North,5,2.0,4.0,62,0.00,,,0.00,Wunderground v.1.15,2013-03-21 15:16:00,
2013-03-21 08:21:00,36.0,23.8,30.01,North,5,4.0,5.0,61,0.00,,,0.00,Wunderground v.1.15,2013-03-21 15:21:00,
2013-03-21 08:26:00,36.2,22.8,30.01,North,5,1.0,4.0,58,0.00,,,0.00,Wunderground v.1.15,2013-03-21 15:26:00,
2013-03-21 08:31:00,36.6,24.8,30.02,North,5,1.0,4.0,62,0.00,,,0.00,Wunderground v.1.15,2013-03-21 15:31:00,
2013-03-21 08:36:00,36.9,23.1,30.02,North,5,1.0,2.0,57,0.00,,,0.00,Wunderground v.1.15,2013-03-21 15:36:00,
2013-03-21 08:41:00,37.6,24.6,30.02,North,5,1.0,2.0,59,0.00,,,0.00,Wunderground v.1.15,2013-03-21 15:41:00,
2013-03-21 08:46:00,38.0,23.7,30.02,North,5,1.0,2.0,56,0.00,,,0.00,Wunderground v.1.15,2013-03-21 15:46:00,
2013-03-21 08:51:00,38.1,23.8,30.02,North,10,2.0,5.0,56,0.00,,,0.00,Wunderground v.1.15,2013-03-21 15:51:00,
2013-03-21 08:56:00,38.0,23.7,30.02,North,10,2.0,3.0,56,0.00,,,0.00,Wunderground v.1.15,2013-03-21 15:56:00,
2013-03-21 09:01:00,38.3,23.5,30.02,North,10,3.0,3.0,55,0.00,,,0.00,Wunderground v.1.15,2013-03-21 16:01:00,
2013-03-21 09:06:00,38.2,23.9,30.02,North,360,3.0,6.0,56,0.00,,,0.00,Wunderground v.1.15,2013-03-21 16:06:00,
2013-03-21 09:11:00,38.4,24.5,30.02,North,350,2.0,6.0,57,0.00,,,0.00,Wunderground v.1.15,2013-03-21 16:11:00,
2013-03-21 09:16:00,38.8,24.9,30.02,North,350,4.0,5.0,57,0.00,,,0.00,Wunderground v.1.15,2013-03-21 16:16:00,
2013-03-21 09:21:00,39.0,25.0,30.02,North,350,1.0,5.0,57,0.00,,,0.00,Wunderground v.1.15,2013-03-21 16:21:00,
2013-03-21 09:22:00,39.1,25.1,30.02,North,350,3.0,5.0,57,0.00,,,0.00,Wunderground v.1.15,2013-03-21 16:22:00,
2013-03-21 09:26:00,39.3,25.3,30.03,NNW,331,6.0,7.0,57,0.00,,,0.00,Wunderground v.1.15,2013-03-21 16:26:00,
2013-03-21 09:31:00,39.5,25.1,30.03,NNW,331,3.0,7.0,56,0.00,,,0.00,Wunderground v.1.15,2013-03-21 16:31:00,
2013-03-21 09:36:00,39.7,25.3,30.03,NNW,331,4.0,6.0,56,0.00,,,0.00,Wunderground v.1.15,2013-03-21 16:36:00,
2013-03-21 09:41:00,40.0,25.1,30.03,NNW,331,4.0,7.0,55,0.00,,,0.00,Wunderground v.1.15,2013-03-21 16:41:00,
2013-03-21 09:46:00,40.1,25.2,30.03,NNW,331,4.0,6.0,55,0.00,,,0.00,Wunderground v.1.15,2013-03-21 16:46:00,
2013-03-21 09:51:00,40.7,24.9,30.03,NW,325,0.0,9.0,53,0.00,,,0.00,Wunderground v.1.15,2013-03-21 16:51:00,
2013-03-21 09:56:00,41.3,25.0,30.03,NW,325,7.0,8.0,52,0.00,,,0.00,Wunderground v.1.15,2013-03-21 16:56:00,
2013-03-21 10:01:00,41.6,22.8,30.03,WNW,296,9.0,10.0,47,0.00,,,0.00,Wunderground v.1.15,2013-03-21 17:01:00,
2013-03-21 10:06:00,41.8,20.4,30.03,WSW,254,6.0,10.0,42,0.00,,,0.00,Wunderground v.1.15,2013-03-21 17:06:00,
2013-03-21 10:11:00,41.9,20.4,30.03,West,261,7.0,10.0,42,0.00,,,0.00,Wunderground v.1.15,2013-03-21 17:11:00,
2013-03-21 10:16:00,42.1,20.1,30.04,West,274,8.0,10.0,41,0.00,,,0.00,Wunderground v.1.15,2013-03-21 17:16:00,
2013-03-21 10:21:00,41.9,20.4,30.04,West,272,2.0,10.0,42,0.00,,,0.00,Wunderground v.1.15,2013-03-21 17:21:00,
2013-03-21 10:26:00,42.3,20.8,30.04,West,272,4.0,6.0,42,0.00,,,0.00,Wunderground v.1.15,2013-03-21 17:26:00,
2013-03-21 10:31:00,42.5,20.4,30.04,West,272,3.0,7.0,41,0.00,,,0.00,Wunderground v.1.15,2013-03-21 17:31:00,
2013-03-21 10:36:00,42.5,19.3,30.04,West,272,8.0,9.0,39,0.00,,,0.00,Wunderground v.1.15,2013-03-21 17:36:00,
2013-03-21 10:41:00,42.7,20.0,30.04,West,273,1.0,9.0,40,0.00,,,0.00,Wunderground v.1.15,2013-03-21 17:41:00,
2013-03-21 10:46:00,43.2,19.9,30.04,WNW,285,9.0,9.0,39,0.00,,,0.00,Wunderground v.1.15,2013-03-21 17:46:00,
2013-03-21 10:51:00,43.2,20.5,30.04,NW,306,8.0,11.0,40,0.00,,,0.00,Wunderground v.1.15,2013-03-21 17:51:00,
2013-03-21 10:56:00,43.2,19.9,30.04,WNW,303,5.0,9.0,39,0.00,,,0.00,Wunderground v.1.15,2013-03-21 17:56:00,
2013-03-21 11:01:00,43.4,20.1,30.04,WNW,303,2.0,9.0,39,0.00,,,0.00,Wunderground v.1.15,2013-03-21 18:01:00,
2013-03-21 11:06:00,43.9,19.9,30.05,NW,304,0.0,5.0,38,0.00,,,0.00,Wunderground v.1.15,2013-03-21 18:06:00,
2013-03-21 11:11:00,44.2,20.2,30.05,WSW,255,3.0,9.0,38,0.00,,,0.00,Wunderground v.1.15,2013-03-21 18:11:00,
2013-03-21 11:16:00,44.2,20.8,30.05,WSW,255,3.0,3.0,39,0.00,,,0.00,Wunderground v.1.15,2013-03-21 18:16:00,
2013-03-21 11:21:00,44.4,19.1,30.05,WNW,289,4.0,9.0,36,0.00,,,0.00,Wunderground v.1.15,2013-03-21 18:21:00,
2013-03-21 11:26:00,44.5,19.8,30.05,West,278,5.0,7.0,37,0.00,,,0.00,Wunderground v.1.15,2013-03-21 18:26:00,
2013-03-21 11:31:00,44.7,20.0,30.05,WSW,256,9.0,11.0,37,0.00,,,0.00,Wunderground v.1.15,2013-03-21 18:31:00,
2013-03-21 11:36:00,44.2,19.5,30.05,West,280,7.0,12.0,37,0.00,,,0.00,Wunderground v.1.15,2013-03-21 18:36:00,
2013-03-21 11:41:00,44.2,18.9,30.05,WSW,246,4.0,12.0,36,0.00,,,0.00,Wunderground v.1.15,2013-03-21 18:41:00,
2013-03-21 11:46:00,44.7,20.0,30.05,WNW,283,9.0,11.0,37,0.00,,,0.00,Wunderground v.1.15,2013-03-21 18:46:00,
2013-03-21 11:51:00,44.9,19.5,30.05,WNW,296,3.0,11.0,36,0.00,,,0.00,Wunderground v.1.15,2013-03-21 18:51:00,
2013-03-21 11:56:00,44.7,18.7,30.05,NW,315,8.0,13.0,35,0.00,,,0.00,Wunderground v.1.15,2013-03-21 18:56:00,
2013-03-21 12:01:00,45.0,19.6,30.05,North,360,4.0,13.0,36,0.00,,,0.00,Wunderground v.1.15,2013-03-21 19:01:00,
2013-03-21 12:06:00,45.4,20.0,30.05,NW,304,7.0,8.0,36,0.00,,,0.00,Wunderground v.1.15,2013-03-21 19:06:00,
2013-03-21 12:11:00,45.7,18.9,30.05,NW,310,1.0,12.0,34,0.00,,,0.00,Wunderground v.1.15,2013-03-21 19:11:00,
2013-03-21 12:16:00,45.5,19.4,30.05,NW,310,4.0,5.0,35,0.00,,,0.00,Wunderground v.1.15,2013-03-21 19:16:00,
2013-03-21 12:21:00,45.0,18.3,30.05,NW,312,2.0,7.0,34,0.00,,,0.00,Wunderground v.1.15,2013-03-21 19:21:00,
2013-03-21 12:26:00,44.7,19.3,30.05,NW,312,2.0,4.0,36,0.00,,,0.00,Wunderground v.1.15,2013-03-21 19:26:00,
2013-03-21 12:31:00,44.7,18.0,30.05,NW,310,7.0,8.0,34,0.00,,,0.00,Wunderground v.1.15,2013-03-21 19:31:00,
2013-03-21 12:36:00,44.8,18.1,30.04,NW,306,3.0,8.0,34,0.00,,,0.00,Wunderground v.1.15,2013-03-21 19:36:00,
2013-03-21 12:41:00,45.4,20.0,30.04,WSW,249,7.0,11.0,36,0.00,,,0.00,Wunderground v.1.15,2013-03-21 19:41:00,
2013-03-21 12:46:00,45.0,18.3,30.04,WSW,250,5.0,9.0,34,0.00,,,0.00,Wunderground v.1.15,2013-03-21 19:46:00,
2013-03-21 12:51:00,44.7,18.0,30.04,WSW,250,3.0,9.0,34,0.00,,,0.00,Wunderground v.1.15,2013-03-21 19:51:00,
2013-03-21 12:56:00,45.6,18.8,30.04,West,266,5.0,10.0,34,0.00,,,0.00,Wunderground v.1.15,2013-03-21 19:56:00,
2013-03-21 13:01:00,45.8,18.3,30.04,WSW,252,10.0,14.0,33,0.00,,,0.00,Wunderground v.1.15,2013-03-21 20:01:00,
2013-03-21 13:06:00,46.1,17.8,30.04,WSW,241,7.0,16.0,32,0.00,,,0.00,Wunderground v.1.15,2013-03-21 20:06:00,
2013-03-21 13:11:00,46.2,17.9,30.04,WSW,242,9.0,16.0,32,0.00,,,0.00,Wunderground v.1.15,2013-03-21 20:11:00,
2013-03-21 13:16:00,45.8,18.3,30.04,West,261,6.0,10.0,33,0.00,,,0.00,Wunderground v.1.15,2013-03-21 20:16:00,
2013-03-21 13:21:00,45.7,20.2,30.04,West,263,7.0,15.0,36,0.00,,,0.00,Wunderground v.1.15,2013-03-21 20:21:00,
2013-03-21 13:26:00,45.8,19.0,30.04,SW,233,10.0,14.0,34,0.00,,,0.00,Wunderground v.1.15,2013-03-21 20:26:00,
2013-03-21 13:31:00,46.3,21.4,30.04,SW,222,16.0,16.0,37,0.00,,,0.00,Wunderground v.1.15,2013-03-21 20:31:00,
2013-03-21 13:36:00,45.9,19.8,30.04,WSW,246,11.0,14.0,35,0.00,,,0.00,Wunderground v.1.15,2013-03-21 20:36:00,
2013-03-21 13:41:00,46.2,19.3,30.04,WSW,244,10.0,17.0,34,0.00,,,0.00,Wunderground v.1.15,2013-03-21 20:41:00,
2013-03-21 13:46:00,45.9,17.7,30.04,WSW,242,9.0,15.0,32,0.00,,,0.00,Wunderground v.1.15,2013-03-21 20:46:00,
2013-03-21 13:51:00,45.4,17.9,30.03,WSW,248,8.0,15.0,33,0.00,,,0.00,Wunderground v.1.15,2013-03-21 20:51:00,
2013-03-21 13:56:00,45.5,18.0,30.03,West,277,10.0,13.0,33,0.00,,,0.00,Wunderground v.1.15,2013-03-21 20:56:00,
2013-03-21 14:01:00,45.5,18.0,30.03,West,265,6.0,17.0,33,0.00,,,0.00,Wunderground v.1.15,2013-03-21 21:01:00,
2013-03-21 14:06:00,45.8,19.0,30.03,WSW,258,8.0,15.0,34,0.00,,,0.00,Wunderground v.1.15,2013-03-21 21:06:00,
2013-03-21 14:11:00,46.0,19.2,30.03,WSW,248,6.0,16.0,34,0.00,,,0.00,Wunderground v.1.15,2013-03-21 21:11:00,
2013-03-21 14:16:00,45.4,20.6,30.03,WSW,241,14.0,17.0,37,0.00,,,0.00,Wunderground v.1.15,2013-03-21 21:16:00,
2013-03-21 14:21:00,45.0,20.3,30.03,SW,227,7.0,18.0,37,0.00,,,0.00,Wunderground v.1.15,2013-03-21 21:21:00,
2013-03-21 14:26:00,44.8,19.4,30.03,West,269,9.0,21.0,36,0.00,,,0.00,Wunderground v.1.15,2013-03-21 21:26:00,
2013-03-21 14:31:00,44.6,19.3,30.03,West,263,2.0,21.0,36,0.00,,,0.00,Wunderground v.1.15,2013-03-21 21:31:00,
2013-03-21 14:36:00,44.7,20.0,30.02,West,277,7.0,9.0,37,0.00,,,0.00,Wunderground v.1.15,2013-03-21 21:36:00,
2013-03-21 14:41:00,44.5,19.8,30.02,West,278,7.0,12.0,37,0.00,,,0.00,Wunderground v.1.15,2013-03-21 21:41:00,
2013-03-21 14:46:00,44.4,19.7,30.02,WNW,301,6.0,11.0,37,0.00,,,0.00,Wunderground v.1.15,2013-03-21 21:46:00,
2013-03-21 14:51:00,44.3,22.1,30.02,WNW,296,6.0,19.0,41,0.00,,,0.00,Wunderground v.1.15,2013-03-21 21:51:00,
2013-03-21 14:56:00,44.5,22.2,30.02,West,279,9.0,12.0,41,0.00,,,0.00,Wunderground v.1.15,2013-03-21 21:56:00,
2013-03-21 15:01:00,44.9,21.4,30.02,WSW,240,9.0,16.0,39,0.00,,,0.00,Wunderground v.1.15,2013-03-21 22:01:00,
2013-03-21 15:06:00,45.0,23.3,30.02,WSW,239,11.0,14.0,42,0.00,,,0.00,Wunderground v.1.15,2013-03-21 22:06:00,
2013-03-21 15:11:00,45.2,23.4,30.02,SW,217,7.0,14.0,42,0.00,,,0.00,Wunderground v.1.15,2013-03-21 22:11:00,
2013-03-21 15:16:00,45.7,23.9,30.02,SW,234,10.0,14.0,42,0.00,,,0.00,Wunderground v.1.15,2013-03-21 22:16:00,
2013-03-21 15:21:00,45.2,22.3,30.02,WSW,249,5.0,14.0,40,0.00,,,0.00,Wunderground v.1.15,2013-03-21 22:21:00,
2013-03-21 15:26:00,45.8,21.6,30.02,NW,313,15.0,15.0,38,0.00,,,0.00,Wunderground v.1.15,2013-03-21 22:26:00,
2013-03-21 15:31:00,45.8,20.3,30.02,WNW,284,10.0,15.0,36,0.00,,,0.00,Wunderground v.1.15,2013-03-21 22:31:00,
2013-03-21 15:36:00,45.3,21.2,30.02,WNW,288,11.0,15.0,38,0.00,,,0.00,Wunderground v.1.15,2013-03-21 22:36:00,
2013-03-21 15:41:00,45.4,21.2,30.02,WNW,300,13.0,15.0,38,0.00,,,0.00,Wunderground v.1.15,2013-03-21 22:41:00,
2013-03-21 15:46:00,45.4,20.6,30.02,WNW,301,8.0,14.0,37,0.00,,,0.00,Wunderground v.1.15,2013-03-21 22:46:00,
2013-03-21 15:51:00,45.5,20.7,30.02,WNW,294,9.0,14.0,37,0.00,,,0.00,Wunderground v.1.15,2013-03-21 22:51:00,
2013-03-21 15:56:00,45.4,20.6,30.02,WSW,257,5.0,12.0,37,0.00,,,0.00,Wunderground v.1.15,2013-03-21 22:56:00,
2013-03-21 16:01:00,45.7,20.9,30.01,WNW,283,3.0,12.0,37,0.00,,,0.00,Wunderground v.1.15,2013-03-21 23:01:00,
2013-03-21 16:06:00,46.0,20.5,30.02,WNW,298,7.0,12.0,36,0.00,,,0.00,Wunderground v.1.15,2013-03-21 23:06:00,
2013-03-21 16:11:00,46.1,21.9,30.02,NW,304,5.0,12.0,38,0.00,,,0.00,Wunderground v.1.15,2013-03-21 23:11:00,
2013-03-21 16:16:00,46.0,21.8,30.02,NW,319,10.0,11.0,38,0.00,,,0.00,Wunderground v.1.15,2013-03-21 23:16:00,
2013-03-21 16:21:00,45.9,20.4,30.02,West,269,6.0,12.0,36,0.00,,,0.00,Wunderground v.1.15,2013-03-21 23:21:00,
2013-03-21 16:26:00,46.0,21.8,30.01,West,263,6.0,10.0,38,0.00,,,0.00,Wunderground v.1.15,2013-03-21 23:26:00,
2013-03-21 16:31:00,46.5,22.2,30.02,NW,314,9.0,12.0,38,0.00,,,0.00,Wunderground v.1.15,2013-03-21 23:31:00,
2013-03-21 16:36:00,46.7,21.1,30.02,West,273,11.0,12.0,36,0.00,,,0.00,Wunderground v.1.15,2013-03-21 23:36:00,
2013-03-21 16:41:00,46.6,21.0,30.02,WNW,291,5.0,12.0,36,0.00,,,0.00,Wunderground v.1.15,2013-03-21 23:41:00,
2013-03-21 16:46:00,46.0,20.5,30.02,WNW,282,9.0,13.0,36,0.00,,,0.00,Wunderground v.1.15,2013-03-21 23:46:00,
2013-03-21 16:51:00,45.6,21.4,30.02,NNW,329,10.0,13.0,38,0.00,,,0.00,Wunderground v.1.15,2013-03-21 23:51:00,
2013-03-21 16:56:00,45.1,19.7,30.02,NW,321,9.0,17.0,36,0.00,,,0.00,Wunderground v.1.15,2013-03-21 23:56:00,
2013-03-21 17:01:00,45.0,20.9,30.02,West,279,6.0,17.0,38,0.00,,,0.00,Wunderground v.1.15,2013-03-22 00:01:00,
2013-03-21 17:06:00,45.1,21.0,30.02,NNW,327,9.0,14.0,38,0.00,,,0.00,Wunderground v.1.15,2013-03-22 00:06:00,
2013-03-21 17:11:00,45.0,20.3,30.02,NNW,328,8.0,16.0,37,0.00,,,0.00,Wunderground v.1.15,2013-03-22 00:11:00,
2013-03-21 17:16:00,43.8,22.7,30.02,NNW,340,26.0,28.0,43,0.00,,,0.00,Wunderground v.1.15,2013-03-22 00:16:00,
2013-03-21 17:21:00,43.2,22.7,30.02,NW,319,25.0,28.0,44,0.00,,,0.00,Wunderground v.1.15,2013-03-22 00:21:00,
2013-03-21 17:26:00,43.1,20.4,30.03,NNW,331,18.0,24.0,40,0.00,,,0.00,Wunderground v.1.15,2013-03-22 00:26:00,
2013-03-21 17:31:00,42.0,25.2,30.03,NW,325,15.0,26.0,51,0.00,,,0.00,Wunderground v.1.15,2013-03-22 00:31:00,
2013-03-21 17:36:00,41.5,26.1,30.03,NNW,338,22.0,22.0,54,0.00,,,0.00,Wunderground v.1.15,2013-03-22 00:36:00,
2013-03-21 17:41:00,42.1,25.3,30.03,NNW,341,16.0,22.0,51,0.00,,,0.00,Wunderground v.1.15,2013-03-22 00:41:00,
2013-03-21 17:46:00,42.2,24.9,30.03,North,355,13.0,17.0,50,0.00,,,0.00,Wunderground v.1.15,2013-03-22 00:46:00,
2013-03-21 17:51:00,42.3,24.0,30.03,North,355,11.0,17.0,48,0.00,,,0.00,Wunderground v.1.15,2013-03-22 00:51:00,
2013-03-21 17:56:00,42.4,24.1,30.03,North,355,5.0,11.0,48,0.00,,,0.00,Wunderground v.1.15,2013-03-22 00:56:00,
2013-03-21 18:01:00,42.7,23.3,30.03,NNW,329,13.0,16.0,46,0.00,,,0.00,Wunderground v.1.15,2013-03-22 01:01:00,
2013-03-21 18:06:00,42.8,22.9,30.03,NNW,331,16.0,18.0,45,0.00,,,0.00,Wunderground v.1.15,2013-03-22 01:06:00,
2013-03-21 18:11:00,42.4,23.1,30.02,NNW,329,10.0,21.0,46,0.00,,,0.00,Wunderground v.1.15,2013-03-22 01:11:00,
2013-03-21 18:16:00,42.2,24.4,30.02,NNW,336,17.0,24.0,49,0.00,,,0.00,Wunderground v.1.15,2013-03-22 01:16:00,
2013-03-21 18:21:00,41.6,24.8,30.03,NW,320,18.0,24.0,51,0.00,,,0.00,Wunderground v.1.15,2013-03-22 01:21:00,
2013-03-21 18:26:00,41.3,25.4,30.03,NW,317,18.0,23.0,53,0.00,,,0.00,Wunderground v.1.15,2013-03-22 01:26:00,
2013-03-21 18:31:00,41.2,24.9,30.03,NW,322,16.0,23.0,52,0.00,,,0.00,Wunderground v.1.15,2013-03-22 01:31:00,
2013-03-21 18:36:00,40.9,25.1,30.02,NW,325,21.0,24.0,53,0.00,,,0.00,Wunderground v.1.15,2013-03-22 01:36:00,
2013-03-21 18:41:00,40.6,25.2,30.02,NW,309,9.0,24.0,54,0.00,,,0.00,Wunderground v.1.15,2013-03-22 01:41:00,
2013-03-21 18:46:00,40.3,25.8,30.03,NW,321,14.0,26.0,56,0.00,,,0.00,Wunderground v.1.15,2013-03-22 01:46:00,
2013-03-21 18:51:00,40.0,25.6,30.03,NW,308,11.0,26.0,56,0.00,,,0.00,Wunderground v.1.15,2013-03-22 01:51:00,
2013-03-21 18:56:00,40.0,25.6,30.03,WNW,303,16.0,24.0,56,0.00,,,0.00,Wunderground v.1.15,2013-03-22 01:56:00,
2013-03-21 19:01:00,39.9,25.5,30.03,WNW,302,12.0,24.0,56,0.00,,,0.00,Wunderground v.1.15,2013-03-22 02:01:00,
2013-03-21 19:06:00,39.7,25.7,30.03,WNW,293,12.0,18.0,57,0.00,,,0.00,Wunderground v.1.15,2013-03-22 02:06:00,
2013-03-21 19:11:00,39.5,25.9,30.03,WNW,300,8.0,18.0,58,0.00,,,0.00,Wunderground v.1.15,2013-03-22 02:11:00,
2013-03-21 19:16:00,39.2,26.1,30.04,WNW,300,10.0,16.0,59,0.00,,,0.00,Wunderground v.1.15,2013-03-22 02:16:00,
2013-03-21 19:21:00,38.8,26.5,30.04,WNW,292,7.0,16.0,61,0.00,,,0.00,Wunderground v.1.15,2013-03-22 02:21:00,
2013-03-21 19:26:00,38.4,26.5,30.04,WNW,288,6.0,11.0,62,0.00,,,0.00,Wunderground v.1.15,2013-03-22 02:26:00,
2013-03-21 19:31:00,38.0,26.5,30.03,WNW,296,5.0,11.0,63,0.00,,,0.00,Wunderground v.1.15,2013-03-22 02:31:00,
2013-03-21 19:36:00,37.7,26.6,30.04,WNW,302,5.0,7.0,64,0.00,,,0.00,Wunderground v.1.15,2013-03-22 02:36:00,
2013-03-21 19:41:00,37.5,26.8,30.04,WNW,295,5.0,9.0,65,0.00,,,0.00,Wunderground v.1.15,2013-03-22 02:41:00,
2013-03-21 19:46:00,37.4,26.3,30.04,WNW,290,6.0,9.0,64,0.00,,,0.00,Wunderground v.1.15,2013-03-22 02:46:00,
2013-03-21 19:51:00,37.4,25.9,30.04,WNW,282,7.0,14.0,63,0.00,,,0.00,Wunderground v.1.15,2013-03-22 02:51:00,
2013-03-21 19:56:00,37.5,26.0,30.04,WNW,285,9.0,11.0,63,0.00,,,0.00,Wunderground v.1.15,2013-03-22 02:56:00,
2013-03-21 19:57:00,37.5,26.0,30.04,WNW,288,10.0,11.0,63,0.00,,,0.00,Wunderground v.1.15,2013-03-22 02:57:00,
2013-03-21 20:01:00,37.7,25.8,30.04,West,278,12.0,13.0,62,0.00,,,0.00,Wunderground v.1.15,2013-03-22 03:01:00,
2013-03-21 20:06:00,37.6,25.7,30.04,West,276,7.0,14.0,62,0.00,,,0.00,Wunderground v.1.15,2013-03-22 03:06:00,
2013-03-21 20:11:00,37.7,25.8,30.04,West,278,11.0,15.0,62,0.00,,,0.00,Wunderground v.1.15,2013-03-22 03:11:00,
2013-03-21 20:16:00,37.9,26.0,30.04,West,277,10.0,13.0,62,0.00,,,0.00,Wunderground v.1.15,2013-03-22 03:16:00,
2013-03-21 20:21:00,37.8,25.9,30.04,West,278,8.0,13.0,62,0.00,,,0.00,Wunderground v.1.15,2013-03-22 03:21:00,
2013-03-21 20:26:00,37.8,26.3,30.04,West,271,11.0,11.0,63,0.00,,,0.00,Wunderground v.1.15,2013-03-22 03:26:00,
2013-03-21 20:31:00,37.3,26.6,30.04,West,277,5.0,12.0,65,0.00,,,0.00,Wunderground v.1.15,2013-03-22 03:31:00,
2013-03-21 20:36:00,36.8,26.9,30.04,West,270,7.0,10.0,67,0.00,,,0.00,Wunderground v.1.15,2013-03-22 03:36:00,
2013-03-21 20:41:00,36.8,26.9,30.04,West,269,8.0,10.0,67,0.00,,,0.00,Wunderground v.1.15,2013-03-22 03:41:00,
2013-03-21 20:46:00,36.8,26.9,30.04,WNW,285,5.0,8.0,67,0.00,,,0.00,Wunderground v.1.15,2013-03-22 03:46:00,
2013-03-21 20:51:00,36.4,26.8,30.04,WNW,288,2.0,8.0,68,0.00,,,0.00,Wunderground v.1.15,2013-03-22 03:51:00,
2013-03-21 20:56:00,36.5,26.9,30.04,WNW,284,2.0,5.0,68,0.00,,,0.00,Wunderground v.1.15,2013-03-22 03:56:00,
2013-03-21 21:00:00,36.5,26.9,30.04,West,278,3.0,5.0,68,0.00,,,0.00,Wunderground v.1.15,2013-03-22 04:00:00,
2013-03-21 21:01:00,36.4,26.8,30.04,West,278,1.0,5.0,68,0.00,,,0.00,Wunderground v.1.15,2013-03-22 04:01:00,
2013-03-21 21:05:00,36.4,26.5,30.05,West,278,0.0,3.0,67,0.00,,,0.00,Wunderground v.1.15,2013-03-22 04:05:00,
2013-03-21 21:10:00,36.5,26.6,30.05,West,278,2.0,3.0,67,0.00,,,0.00,Wunderground v.1.15,2013-03-22 04:10:00,
2013-03-21 21:11:00,36.4,26.5,30.05,West,278,1.0,3.0,67,0.00,,,0.00,Wunderground v.1.15,2013-03-22 04:11:00,
2013-03-21 21:16:00,36.4,26.1,30.05,West,277,1.0,3.0,66,0.00,,,0.00,Wunderground v.1.15,2013-03-22 04:16:00,
2013-03-21 21:21:00,36.6,25.9,30.05,West,277,1.0,3.0,65,0.00,,,0.00,Wunderground v.1.15,2013-03-22 04:21:00,
2013-03-21 21:26:00,36.8,25.8,30.06,West,277,0.0,1.0,64,0.00,,,0.00,Wunderground v.1.15,2013-03-22 04:26:00,
2013-03-21 21:31:00,36.7,26.4,30.06,West,277,0.0,1.0,66,0.00,,,0.00,Wunderground v.1.15,2013-03-22 04:31:00,
2013-03-21 21:36:00,36.5,26.2,30.06,West,277,2.0,3.0,66,0.00,,,0.00,Wunderground v.1.15,2013-03-22 04:36:00,
2013-03-21 21:41:00,36.4,26.1,30.06,West,265,5.0,6.0,66,0.00,,,0.00,Wunderground v.1.15,2013-03-22 04:41:00,
2013-03-21 21:46:00,36.2,25.9,30.06,WSW,239,6.0,8.0,66,0.00,,,0.00,Wunderground v.1.15,2013-03-22 04:46:00,
2013-03-21 21:51:00,36.2,25.9,30.06,WSW,252,5.0,9.0,66,0.00,,,0.00,Wunderground v.1.15,2013-03-22 04:51:00,
2013-03-21 21:56:00,36.4,25.4,30.06,WSW,256,6.0,9.0,64,0.00,,,0.00,Wunderground v.1.15,2013-03-22 04:56:00,
2013-03-21 22:01:00,36.4,25.0,30.06,West,261,10.0,12.0,63,0.00,,,0.00,Wunderground v.1.15,2013-03-22 05:01:00,
2013-03-21 22:06:00,37.0,23.6,30.06,WNW,285,11.0,16.0,58,0.00,,,0.00,Wunderground v.1.15,2013-03-22 05:06:00,
2013-03-21 22:11:00,37.4,23.1,30.06,WNW,300,8.0,16.0,56,0.00,,,0.00,Wunderground v.1.15,2013-03-22 05:11:00,
2013-03-21 22:16:00,37.3,23.0,30.06,NW,310,10.0,11.0,56,0.00,,,0.00,Wunderground v.1.15,2013-03-22 05:16:00,
2013-03-21 22:21:00,37.7,22.5,30.06,NW,306,10.0,14.0,54,0.00,,,0.00,Wunderground v.1.15,2013-03-22 05:21:00,
2013-03-21 22:26:00,38.0,22.4,30.06,WNW,296,10.0,12.0,53,0.00,,,0.00,Wunderground v.1.15,2013-03-22 05:26:00,
2013-03-21 22:31:00,38.3,22.2,30.06,WNW,296,8.0,14.0,52,0.00,,,0.00,Wunderground v.1.15,2013-03-22 05:31:00,
2013-03-21 22:36:00,38.1,22.5,30.06,NW,306,6.0,10.0,53,0.00,,,0.00,Wunderground v.1.15,2013-03-22 05:36:00,
2013-03-21 22:41:00,37.8,22.2,30.06,WNW,291,6.0,12.0,53,0.00,,,0.00,Wunderground v.1.15,2013-03-22 05:41:00,
2013-03-21 22:46:00,37.8,22.6,30.06,WNW,292,7.0,12.0,54,0.00,,,0.00,Wunderground v.1.15,2013-03-22 05:46:00,
2013-03-21 22:51:00,37.9,22.7,30.06,NW,304,7.0,14.0,54,0.00,,,0.00,Wunderground v.1.15,2013-03-22 05:51:00,
2013-03-21 22:56:00,37.9,22.3,30.06,NW,319,13.0,17.0,53,0.00,,,0.00,Wunderground v.1.15,2013-03-22 05:56:00,
2013-03-21 23:01:00,37.9,22.3,30.07,NW,320,7.0,17.0,53,0.00,,,0.00,Wunderground v.1.15,2013-03-22 06:01:00,
2013-03-21 23:06:00,38.0,22.4,30.06,NNW,329,14.0,16.0,53,0.00,,,0.00,Wunderground v.1.15,2013-03-22 06:06:00,
2013-03-21 23:11:00,38.3,22.2,30.07,NW,317,13.0,17.0,52,0.00,,,0.00,Wunderground v.1.15,2013-03-22 06:11:00,
2013-03-21 23:16:00,38.3,21.7,30.07,NW,325,7.0,15.0,51,0.00,,,0.00,Wunderground v.1.15,2013-03-22 06:16:00,
2013-03-21 23:21:00,38.0,21.9,30.07,NW,323,8.0,15.0,52,0.00,,,0.00,Wunderground v.1.15,2013-03-22 06:21:00,
2013-03-21 23:26:00,38.0,21.9,30.07,NW,322,11.0,16.0,52,0.00,,,0.00,Wunderground v.1.15,2013-03-22 06:26:00,
2013-03-21 23:31:00,38.2,21.6,30.07,NW,321,16.0,17.0,51,0.00,,,0.00,Wunderground v.1.15,2013-03-22 06:31:00,
2013-03-21 23:36:00,38.2,21.6,30.07,NW,323,11.0,14.0,51,0.00,,,0.00,Wunderground v.1.15,2013-03-22 06:36:00,
2013-03-21 23:41:00,38.2,21.6,30.07,NNW,327,10.0,16.0,51,0.00,,,0.00,Wunderground v.1.15,2013-03-22 06:41:00,
2013-03-21 23:46:00,38.0,21.9,30.07,NW,310,10.0,12.0,52,0.00,,,0.00,Wunderground v.1.15,2013-03-22 06:46:00,
2013-03-21 23:51:00,37.9,21.8,30.07,NW,315,10.0,13.0,52,0.00,,,0.00,Wunderground v.1.15,2013-03-22 06:51:00,
2013-03-21 23:55:00,37.8,21.7,30.08,NNW,327,6.0,9.0,52,0.00,,,0.00,Wunderground v.1.15,2013-03-22 06:55:00,
2013-03-21 23:56:00,37.8,21.7,30.08,NNW,333,7.0,9.0,52,0.00,,,0.00,Wunderground v.1.15,2013-03-22 06:56:00,